Location: Asheville, NC
(35.6000°N, 82.5500°W)
Time: 06:21:37
(UTC-05:00)

Vanguard 2 Rocket - Pass Details

Date: 10 December 2017
Orbit: 556 x 3326 km, 32.9° (Epoch: 19 January)

Event Time Altitude Azimuth Distance (km) Brightness Sun altitude
Rises 20:23:06 0° 240° (WSW) 5,249 11.6 -36.9°
Reaches altitude 10° 20:26:01 10° 237° (WSW) 4,558 11.0 -37.5°
Maximum altitude 20:39:52 68° 158° (SSE) 3,043 9.2 -40.3°
Enters shadow 20:41:53 65° 129° (SE) 3,182 9.2 -40.8°
